cubair logo

Cub Air Flight LLC Launches Aviation Explorer Program

ExplorersHartford, WI, April, 2014..... Cub Air Flight LLC, a primary flight training school located at the Hartford Municipal Airport, introduced a new aviation program for young men and women.

The Aviation Explorer Program, designed to introduce 15--20 year old young men and women with an interest in aviation to the many aspects in the field of aviation, became a reality when Cub Air Flight and the Bay-Lakes Council, together, launched this ongoing program. Following the guidelines of S.T.E.M.

(Science, Technology, Engineering and Mathematics) this endeavor exposes individuals to "hands on" experience in many aspects of aviation.

The group meets at the Hartford Airport every other Tuesday evening during the school year and will meet more frequently during the summer. Aircraft owner, Dave Courtney, has made his airplane available to the group for the purpose of learning how to dismantle, remove fabric covering, prep and/or replace metal parts, recover with new fabric, repaint and re-assemble the airplane.

At the meeting on Tuesday, April 22nd, the group cut and removed the fabric on all of the flight control surfaces as well as removed a number of the metal parts. The next session will be held on Tuesday, May 6th and will involve removing the control surfaces, inspecting for corrosion and cleaning the surfaces in preparation for painting with Epoxy primer.

"Depending on the number of participants, we may be able to begin removing the covering from the fuselage next time as well," stated Steve Krog, owner of Cub Air Flight LLC and co-director of the program.

In addition to Krog, John Palese, retired American Airlines pilot, and Marc Stamsta, owner of Max Aero Inc., are also assisting with the program. Local physician Dr. Larry Sullivan has also played an active role.

"The enthusiasm has been high so far," commented Stamsta, "the participating young men and women really seem to dig in and get involved."

The participants currently enrolled, from Hartford, West Bend, Slinger, Kewaskum and Belguim all have aspirations toward college degrees in aviation. However, that is not a prerequisite. Anyone age 15-20 with an interest in aviation is invited to become a member of the group.

For more information, contact Cub Air Flight any time from 8:00 AM to 6:00 PM at 262.725.3591.

Find Us Here!

Hartford Municipal

Airport (KHXF)
4200 Highway U
Hartford, WI 53027

Our Staff

Steve Krog
Jamie Weber

West Bend Weather

[Source: ADDS]
METAR
KETB 231355Z AUTO 21004KT 4SM BR OVC003 01/01 A3004 RMK AO2 =
TAF

Waukesha Weather

[Source: ADDS]
METAR
KUES 231345Z 19005KT 1 1/2SM BR OVC002 01/01 A3006 =
TAF
KUES 231120Z 2312/2412 18007KT 1 1/2SM -RA BR OVC002 FM231400 20007KT 3SM BR OVC003 FM231600 26011G21KT P6SM BKN005 FM231700 27011G22KT P6SM BKN008 FM231900 27011KT P6SM BKN020 FM232100 27011KT P6SM SCT025 FM232300 27009KT P6SM BKN250 =

Juneau Weather

[Source: ADDS]
METAR
KUNU 231355Z AUTO 20006KT 1 1/2SM BR OVC003 01/01 A3005 RMK AO2 T00130011 =
TAF

Fond Du Lac Weather

[Source: ADDS]
METAR
KFLD 231408Z AUTO 22009KT 2SM BR OVC006 03/01 A3003 RMK AO2 T00280011 TSNO =
TAF